Regional Weather Roundup
Issued by NWS

Home | Current Version | Previous Version | Text Only | Print | Product List | Glossary Off
Versions: 1 2 3 4 5 6 7 8 9 10 11 12 13 14 15 16 17 18 19 20 21 22 23 24 25 26 27 28 29 30 31 32 33 34 35 36 37 38 39 40 41 42 43 44 45 46 47 48 49 50

000
ASUS43 KLSX 240010
RWRMO

WEATHER SUMMARY FOR MISSOURI
NATIONAL WEATHER SERVICE SPRINGFIELD MO
600 PM CST THU FEB 23 2017

NOTE: "FAIR" INDICATES FEW OR NO CLOUDS BELOW 12,000 FEET WITH NO
       SIGNIFICANT WEATHER AND/OR OBSTRUCTIONS TO VISIBILITY.
       CURRENT SKY AND/OR WEATHER CONDITIONS ARE NOT AVAILABLE FOR
       CHILLICOTHE AND FARMINGTON.

MOZ001>031-035>038-043-044-053-054-240100-
...NORTHERN AND WESTERN MISSOURI...

CITY           SKY/WX    TMP DP  RH WIND       PRES   REMARKS
KANSAS CTY INT PTCLDY    52  45  77 NE15      29.43F
6HR MIN TEMP:  50; 6HR MAX TEMP:  56;

KANSAS C DTWN  CLOUDY    55  45  68 NE14      29.42S
6HR MIN TEMP:  51; 6HR MAX TEMP:  57;

LEE`S SUMMIT   CLOUDY    54  46  74 N15       29.42R
6HR MIN TEMP:  52; 6HR MAX TEMP:  58;

ST JOSEPH      MOCLDY    49  44  83 NE16      29.47S
6HR MIN TEMP:  47; 6HR MAX TEMP:  57;

CHILLICOTHE      N/A     51  46  83 NE10      29.51R
6HR MIN TEMP:  46; 6HR MAX TEMP:  52;

KIRKSVILLE     CLOUDY    49  47  93 E12       29.51S
6HR MIN TEMP:  45; 6HR MAX TEMP:  50; 6HR PCP: TRACE;


$$
MOZ066>068-077>081-088>096-101>105-240100-
...SOUTHWEST MISSOURI...

CITY           SKY/WX    TMP DP  RH WIND       PRES   REMARKS
SPRINGFIELD    PTCLDY    74  49  41 S15       29.43S
6HR MIN TEMP:  70; 6HR MAX TEMP:  84;

JOPLIN         CLOUDY    78  46  32 S17       29.38S
6HR MIN TEMP:  77; 6HR MAX TEMP:  83;

BRANSON        MOCLDY    73  48  40 S18G25    29.50S

$$
MOZ032>034-039>042-045>050-055>058-069>072-240100-
...CENTRAL MISSOURI...

CITY           SKY/WX    TMP DP  RH WIND       PRES   REMARKS
COLUMBIA       MOCLDY    66  55  67 E10       29.46F
6HR MIN TEMP:  58; 6HR MAX TEMP:  67;

JEFFERSON CITY PTCLDY    68  54  60 E15       29.45F
6HR MIN TEMP:  56; 6HR MAX TEMP:  73;

ROLLA          CLEAR     69  54  58 S21       29.48F
6HR MIN TEMP:  63; 6HR MAX TEMP:  72; 6HR PCP: TRACE;

SEDALIA        CLOUDY    65  55  70 E12       29.42F
6HR MIN TEMP:  62; 6HR MAX TEMP:  70;

WHITEMAN AFB   PTCLDY    65  58  77 SE10      29.38F
WARRENSBURG    CLOUDY    64  52  63 E13       29.37F
OSAGE BEACH    CLEAR     74  52  46 S8        29.45S

$$
MOZ051-052-059>065-240100-
...EAST CENTRAL MISSOURI...

CITY           SKY/WX    TMP DP  RH WIND       PRES   REMARKS
ST LOUIS INTL  MOCLDY    66  55  67 SE12      29.56S
6HR MIN TEMP:  66; 6HR MAX TEMP:  72;

SPIRIT OF STL  PTCLDY    66  56  70 SE7       29.53F
6HR MIN TEMP:  66; 6HR MAX TEMP:  74;

ST CHARLES     CLOUDY    65  56  72 SE14      29.54F
6HR MIN TEMP:  64; 6HR MAX TEMP:  70;


$$
MOZ072>076-082>087-097>100-106>115-240100-
...SOUTH CENTRAL AND SOUTHEAST MISSOURI...

CITY           SKY/WX    TMP DP  RH WIND       PRES   REMARKS
CAPE GIRARDEAU CLEAR     67  54  63 S8        29.63R
6HR MIN TEMP:  67; 6HR MAX TEMP:  72;

FARMINGTON     MOCLDY    65  56  72 S15       29.58F
6HR MIN TEMP:  58; 6HR MAX TEMP:  69;

POPLAR BLUFF   CLEAR     68  57  68 S10       29.61F
6HR MIN TEMP:  65; 6HR MAX TEMP:  72;

WEST PLAINS    PTCLDY    69  55  60 S12       29.56R
6HR MIN TEMP:  67; 6HR MAX TEMP:  76;


$$




USA.gov is the U.S. government's official web portal to all federal, state and local government web resources and services.